Weather History for KITR - September, 2013

Change the Weather History Date:

Sunday, September 22, 2013

  Actual Average Record
Temperature  
Mean Temperature 71 °F 61 °F  
Max Temperature 85 °F 76 °F 92 °F (1930)
Min Temperature 57 °F 46 °F 28 °F (1983)
Cooling Degree Days 6    
Growing Degree Days 20 (Base 50)    
Moisture  
Dew Point 51 °F    
Average Humidity 56    
Maximum Humidity 93    
Minimum Humidity 26    
Precipitation  
Precipitation 0.00 in 0.03 in 2.00 in (1941)
Month to date precipitation 5.30 0.89  
Year to date precipitation 15.75 15.04  
Sea Level Pressure  
Sea Level Pressure 29.57 in    
Wind  
Wind Speed 14 mph (South)    
Max Wind Speed 24 mph    
Max Gust Speed 38 mph    
Visibility 10 miles    
Events      
T = Trace of Precipitation, MM = Missing Value Source: NWS Daily Summary

Daily Weather History Graph

Daily Weather History Graph

Search for Another Location

Airport or City:

Trip Planner

Search our weather history database for the weather conditions in past years. The results will help you decide how hot, cold, wet, or windy it might be!

Date:

Astronomy

Sep. 22, 2013 Rise Set
Actual Time 6:37 AM MDT 6:45 PM MDT
Civil Twilight 6:10 AM MDT 7:12 PM MDT
Nautical Twilight 5:39 AM MDT 7:43 PM MDT
Astronomical Twilight 5:07 AM MDT 8:15 PM MDT
Moon 8:38 PM MDT (9/22) 9:57 AM MDT (9/22)
Length of Visible Light 13h 02m
Length of Day
12h 08m
Waning Gibbous, 88% of the Moon is Illuminated
Sep 22
Waning Gibbous
Sep 26
Last Quarter
Oct 4
New
Oct 11
First Quarter
Oct 18
Full

Hourly Weather History & Observations

Time (MDT) Temp. Heat Index Dew Point Humidity Pressure Visibility Wind Dir Wind Speed Gust Speed Precip Events Conditions
12:53 AM 60.1 °F - 55.0 °F 83% 29.69 in 10.0 mi South 12.7 mph - N/A   Clear
1:53 AM 59.0 °F - 55.0 °F 87% 29.68 in 10.0 mi South 9.2 mph - N/A   Clear
2:53 AM 57.9 °F - 55.0 °F 90% 29.66 in 10.0 mi South 9.2 mph - N/A   Clear
3:53 AM 59.0 °F - 55.9 °F 90% 29.64 in 10.0 mi South 10.4 mph - N/A   Clear
4:53 AM 59.0 °F - 55.9 °F 90% 29.64 in 10.0 mi South 10.4 mph - N/A   Clear
5:53 AM 59.0 °F - 55.9 °F 90% 29.63 in 10.0 mi South 11.5 mph - N/A   Clear
6:53 AM 57.0 °F - 55.0 °F 93% 29.66 in 10.0 mi South 8.1 mph - N/A   Clear
7:53 AM 62.1 °F - 57.0 °F 84% 29.66 in 10.0 mi South 8.1 mph - N/A   Clear
8:53 AM 69.1 °F - 57.9 °F 68% 29.65 in 10.0 mi SW 10.4 mph - N/A   Clear
9:53 AM 75.0 °F - 55.9 °F 51% 29.64 in 10.0 mi SSW 10.4 mph - N/A   Clear
10:53 AM 79.0 °F - 55.0 °F 44% 29.62 in 10.0 mi South 15.0 mph - N/A   Clear
11:53 AM 81.0 °F 80.5 °F 54.0 °F 39% 29.60 in 10.0 mi South 16.1 mph 23.0 mph N/A   Clear
12:53 PM 84.0 °F - 51.1 °F 32% 29.57 in 10.0 mi South 18.4 mph 26.5 mph N/A   Clear
1:53 PM 84.0 °F - 52.0 °F 33% 29.54 in 10.0 mi SSE 19.6 mph 27.6 mph N/A   Clear
2:53 PM 84.9 °F - 48.9 °F 29% 29.51 in 10.0 mi South 18.4 mph 29.9 mph N/A   Clear
3:53 PM 84.9 °F - 46.0 °F 26% 29.49 in 10.0 mi South 19.6 mph 38.0 mph N/A   Clear
4:53 PM 82.0 °F - 45.0 °F 27% 29.47 in 10.0 mi South 23.0 mph 34.5 mph N/A   Clear
5:53 PM 79.0 °F - 46.0 °F 31% 29.47 in 10.0 mi South 24.2 mph 38.0 mph N/A   Clear
6:53 PM 75.9 °F - 44.1 °F 32% 29.49 in 10.0 mi South 21.9 mph 32.2 mph N/A   Clear
7:53 PM 72.0 °F - 42.1 °F 34% 29.51 in 10.0 mi South 16.1 mph 27.6 mph N/A   Clear
8:53 PM 68.0 °F - 45.0 °F 43% 29.51 in 10.0 mi South 18.4 mph - N/A   Clear
9:53 PM 66.9 °F - 46.0 °F 47% 29.49 in 10.0 mi SSE 20.7 mph 33.4 mph N/A   Clear
10:53 PM 64.9 °F - 48.0 °F 54% 29.49 in 10.0 mi South 23.0 mph 35.7 mph N/A   Clear
11:53 PM 64.0 °F - 46.9 °F 54% 29.45 in 10.0 mi South 23.0 mph 31.1 mph N/A   Clear